Kalamazoo, MI

6:05 PM EST on December 13, 2017 (GMT -0500)
Kalamazoo-Battle Creek International

Weather History for KAZO - February, 2013

Change the Weather History Date:

Wednesday, February 20, 2013

  Actual Average Record
Temperature  
Mean Temperature 19 °F 28 °F  
Max Temperature 22 °F 35 °F 64 °F (2017)
Min Temperature 16 °F 21 °F -15 °F (2015)
Degree Days  
Heating Degree Days 46 37  
Month to date heating degree days 814 779  
Since 1 July heating degree days 4265 4487  
Cooling Degree Days 0 0  
Month to date cooling degree days 0 0  
Year to date cooling degree days 0 0  
Moisture  
Dew Point 13 °F    
Average Humidity 78    
Maximum Humidity 88    
Minimum Humidity 68    
Precipitation  
Precipitation T in 0.05 in 0.76 in (2014)
Month to date precipitation 0.57 0.97  
Year to date precipitation 3.97 2.76  
Sea Level Pressure  
Sea Level Pressure 30.16 in    
Wind  
Wind Speed 12 mph (WNW)    
Max Wind Speed 17 mph    
Max Gust Speed 23 mph    
Visibility 3 miles    
Events Snow    
T = Trace of Precipitation, MM = Missing Value Source: NWS Daily Summary

Daily Weather History Graph

Daily Weather History Graph

Search for Another Location

Airport or City:

Trip Planner

Search our weather history database for the weather conditions in past years. The results will help you decide how hot, cold, wet, or windy it might be!

Date:

Astronomy

Feb. 20, 2013 Rise Set
Actual Time 7:30 AM EST 6:21 PM EST
Civil Twilight 7:02 AM EST 6:49 PM EST
Nautical Twilight 6:29 AM EST 7:22 PM EST
Astronomical Twilight 5:57 AM EST 7:55 PM EST
Moon 1:38 PM EST (2/20) 3:54 AM EST (2/20)
Length of Visible Light 11h 47m
Length of Day
10h 50m
Waxing Gibbous, 76% of the Moon is Illuminated
Feb 20
Waxing Gibbous
Feb 25
Full
Mar 4
Last Quarter
Mar 11
New
Mar 19
First Quarter

Hourly Weather History & Observations

Time (EST) Temp. Windchill Dew Point Humidity Pressure Visibility Wind Dir Wind Speed Gust Speed Precip Events Conditions
12:27 AM 17.6 °F 2.2 °F 12.2 °F 79% 30.00 in 3.0 mi WNW 17.3 mph 23.0 mph 0.00 in Snow Light Snow
12:35 AM 17.6 °F 2.2 °F 12.2 °F 79% 30.01 in 4.0 mi WNW 17.3 mph 24.2 mph 0.00 in Snow Light Snow
12:53 AM 17.1 °F 5.8 °F 12.0 °F 81% 30.06 in 3.0 mi West 9.2 mph - 0.00 in Snow Light Snow
1:28 AM 17.6 °F 5.0 °F 12.2 °F 79% 30.02 in 2.0 mi West 11.5 mph - N/A Snow Light Snow
1:40 AM 17.6 °F 5.7 °F 12.2 °F 79% 30.03 in 1.8 mi West 10.4 mph - 0.00 in Snow Light Snow
1:53 AM 17.1 °F 5.0 °F 12.0 °F 81% 30.08 in 1.8 mi West 10.4 mph - 0.00 in Snow Light Snow
2:00 AM 17.6 °F 5.7 °F 12.2 °F 79% 30.03 in 2.0 mi West 10.4 mph - 0.00 in Snow Light Snow
2:39 AM 17.6 °F 5.7 °F 12.2 °F 79% 30.04 in 4.0 mi West 10.4 mph - 0.00 in Snow Light Snow
2:53 AM 17.1 °F 5.0 °F 12.0 °F 81% 30.09 in 2.5 mi West 10.4 mph - 0.00 in Snow Light Snow
3:08 AM 17.6 °F 5.0 °F 12.2 °F 79% 30.04 in 1.2 mi West 11.5 mph - 0.00 in Snow Light Snow
3:31 AM 17.6 °F 4.3 °F 12.2 °F 79% 30.04 in 2.5 mi West 12.7 mph - 0.00 in Snow Light Snow
3:45 AM 17.6 °F 4.3 °F 12.2 °F 79% 30.05 in 2.5 mi WNW 12.7 mph - 0.00 in Snow Light Snow
3:53 AM 17.1 °F 3.0 °F 12.0 °F 81% 30.11 in 2.5 mi WNW 13.8 mph 20.7 mph 0.00 in Snow Light Snow
4:05 AM 17.6 °F 4.3 °F 12.2 °F 79% 30.06 in 1.8 mi West 12.7 mph - 0.00 in Snow Light Snow
4:53 AM 16.0 °F 2.9 °F 12.0 °F 84% 30.12 in 1.0 mi WNW 11.5 mph - 0.00 in Snow Light Snow
5:10 AM 15.8 °F 3.4 °F 12.2 °F 86% 30.08 in 3.0 mi West 10.4 mph 18.4 mph 0.00 in Snow Light Snow
5:20 AM 17.6 °F 5.0 °F 12.2 °F 79% 30.09 in 2.5 mi WNW 11.5 mph - 0.00 in Snow Light Snow
5:27 AM 17.6 °F 4.3 °F 12.2 °F 79% 30.09 in 1.8 mi WNW 12.7 mph - 0.00 in Snow Light Snow
5:36 AM 17.6 °F 7.3 °F 12.2 °F 79% 30.09 in 2.0 mi WNW 8.1 mph - 0.00 in Snow Light Snow
5:53 AM 17.1 °F 5.0 °F 12.9 °F 84% 30.14 in 2.5 mi WNW 10.4 mph - 0.00 in Snow Light Snow
6:01 AM 17.6 °F 6.4 °F 12.2 °F 79% 30.10 in 3.0 mi West 9.2 mph - 0.00 in Snow Light Snow
6:53 AM 17.1 °F 4.3 °F 12.9 °F 84% 30.16 in 3.0 mi West 11.5 mph - 0.00 in Snow Light Snow
7:53 AM 17.6 °F 6.4 °F 14.0 °F 86% 30.13 in 2.5 mi West 9.2 mph - N/A Snow Light Snow
8:29 AM 17.6 °F 4.3 °F 14.0 °F 86% 30.13 in 3.0 mi WNW 12.7 mph - 0.00 in Snow Light Snow
8:53 AM 19.0 °F 6.8 °F 14.0 °F 81% 30.19 in 2.5 mi WNW 11.5 mph - 0.00 in Snow Light Snow
8:58 AM 19.4 °F 6.0 °F 14.0 °F 80% 30.14 in 3.0 mi WNW 13.8 mph - 0.00 in Snow Light Snow
9:14 AM 19.4 °F 5.5 °F 12.2 °F 74% 30.14 in 2.5 mi WNW 15.0 mph 23.0 mph 0.00 in Snow Light Snow
9:53 AM 19.0 °F 6.1 °F 14.0 °F 81% 30.19 in 2.5 mi NW 12.7 mph 20.7 mph 0.00 in Snow Light Snow
10:53 AM 19.0 °F 9.0 °F 14.0 °F 81% 30.22 in 0.8 mi North 8.1 mph - 0.00 in Snow Light Snow
11:35 AM 19.4 °F 7.2 °F 14.0 °F 80% 30.18 in 1.0 mi North 11.5 mph - 0.00 in Snow Light Snow
11:53 AM 19.4 °F 8.6 °F 14.0 °F 80% 30.18 in 1.0 mi NNW 9.2 mph - N/A Snow Light Snow
12:53 PM 19.9 °F 7.3 °F 14.0 °F 78% 30.24 in 1.5 mi NW 12.7 mph - 0.00 in Snow Light Snow
1:53 PM 21.0 °F 9.9 °F 15.1 °F 78% 30.24 in 1.5 mi NNW 10.4 mph - 0.00 in Snow Light Snow
2:53 PM 21.0 °F 8.1 °F 16.0 °F 81% 30.25 in 1.5 mi NW 13.8 mph - 0.00 in Snow Light Snow
3:01 PM 21.2 °F 8.3 °F 15.8 °F 80% 30.20 in 2.0 mi NW 13.8 mph - 0.00 in Snow Light Snow
3:10 PM 21.2 °F 6.8 °F 15.8 °F 80% 30.21 in 2.0 mi NW 17.3 mph 21.9 mph 0.00 in Snow Light Snow
3:53 PM 21.9 °F 9.8 °F 15.1 °F 75% 30.30 in 3.0 mi NW 12.7 mph 23.0 mph 0.00 in Snow Light Snow
4:53 PM 21.9 °F 9.8 °F 15.1 °F 75% 30.29 in 2.0 mi NW 12.7 mph - 0.00 in Snow Light Snow
5:13 PM 21.2 °F 7.3 °F 15.8 °F 80% 30.24 in 4.0 mi NNW 16.1 mph - 0.00 in Snow Light Snow
5:53 PM 21.9 °F 8.7 °F 16.0 °F 78% 30.29 in 4.0 mi NW 15.0 mph - 0.00 in Snow Light Snow
6:53 PM 21.9 °F 7.8 °F 16.0 °F 78% 30.30 in 3.0 mi NNW 17.3 mph 23.0 mph 0.00 in Snow Light Snow
7:28 PM 21.2 °F 7.3 °F 14.0 °F 74% 30.26 in 10.0 mi NNW 16.1 mph - 0.00 in   Overcast
7:53 PM 21.0 °F 8.1 °F 14.0 °F 74% 30.32 in 10.0 mi NW 13.8 mph 26.5 mph 0.00 in   Overcast
8:53 PM 21.9 °F 8.2 °F 12.9 °F 68% 30.32 in 10.0 mi NNW 16.1 mph 23.0 mph N/A   Overcast
9:53 PM 21.0 °F 8.1 °F 12.9 °F 71% 30.32 in 10.0 mi NNW 13.8 mph - N/A   Overcast
10:53 PM 21.0 °F 8.1 °F 14.0 °F 74% 30.32 in 10.0 mi NNW 13.8 mph - N/A   Overcast
11:53 PM 21.0 °F 8.1 °F 14.0 °F 74% 30.32 in 10.0 mi North 13.8 mph - N/A   Overcast